When you browse on this site, cookies collect data to enhance your experience and personalize the content and advertising you see.
Visit our Privacy Policy to learn more. By continuing to use the site, you agree to this use of cookies and data.
  • în România
  • Lista ţărilor
  • Pe 7 zile
  • Temperatura apei
  • Hartă satelitară
  • Meteo pe hartă
  • Widget-uri
  • user-avatar
    Intrare

    Meteo pe oră la Manchester

    Astăzi, 22 Mai, Miercuri

    Timp Temperatura Precipitaţii Vânt Presiune Umiditate
    00:00 +8°C° 0 mm 4 m/s 754 mmHg 61%
    01:00 +8°C° 0 mm 5 m/s 755 mmHg 61%
    02:00 +7°C° 0 mm 5 m/s 755 mmHg 62%
    03:00 +7°C° 0 mm 5 m/s 756 mmHg 63%
    04:00 +6°C° 0 mm 4 m/s 756 mmHg 64%
    05:00 +7°C° 0 mm 4 m/s 757 mmHg 61%
    06:00 +10°C° 0 mm 4 m/s 758 mmHg 58%
    07:00 +10°C° 0 mm 5 m/s 758 mmHg 55%
    08:00 +13°C° 0 mm 4 m/s 758 mmHg 49%
    09:00 +14°C° 0 mm 4 m/s 759 mmHg 44%
    10:00 +17°C° 0 mm 4 m/s 759 mmHg 39%
    11:00 +19°C° 0 mm 4 m/s 759 mmHg 36%
    12:00 +20°C° 0 mm 4 m/s 759 mmHg 33%
    13:00 +21°C° 0 mm 3 m/s 759 mmHg 31%
    14:00 +21°C° 0 mm 3 m/s 759 mmHg 31%
    15:00 +22°C° 0 mm 3 m/s 759 mmHg 31%
    16:00 +22°C° 0 mm 3 m/s 759 mmHg 32%
    17:00 +19°C° 0 mm 2 m/s 759 mmHg 42%
    18:00 +18°C° 0 mm 1 m/s 759 mmHg 52%
    19:00 +13°C° 0 mm 0 m/s 759 mmHg 62%
    20:00 +12°C° 0 mm 0 m/s 760 mmHg 65%
    21:00 +11°C° 0 mm 0 m/s 760 mmHg 67%
    22:00 +11°C° 0 mm 1 m/s 760 mmHg 69%
    23:00 +11°C° 0 mm 1 m/s 760 mmHg 70%

    Mâine, 23 Mai, Joi

    Timp Temperatura Precipitaţii Vânt Presiune Umiditate
    00:00 +10°C° 0 mm 1 m/s 760 mmHg 71%
    01:00 +10°C° 0 mm 1 m/s 760 mmHg 73%
    02:00 +10°C° 0.3 mm 1 m/s 760 mmHg 78%
    03:00 +10°C° 0.3 mm 1 m/s 760 mmHg 84%
    04:00 +10°C° 0.3 mm 1 m/s 759 mmHg 90%
    05:00 +11°C° 0 mm 1 m/s 759 mmHg 90%
    06:00 +10°C° 0 mm 2 m/s 759 mmHg 91%
    07:00 +10°C° 0 mm 2 m/s 758 mmHg 92%
    08:00 +13°C° 0 mm 2 m/s 758 mmHg 86%
    09:00 +13°C° 0 mm 3 m/s 758 mmHg 81%
    10:00 +16°C° 0 mm 3 m/s 757 mmHg 76%
    11:00 +17°C° 0 mm 3 m/s 757 mmHg 71%
    12:00 +19°C° 0 mm 4 m/s 756 mmHg 66%
    13:00 +20°C° 0 mm 4 m/s 755 mmHg 62%
    14:00 +20°C° 0 mm 3 m/s 754 mmHg 64%
    15:00 +21°C° 0 mm 3 m/s 754 mmHg 66%
    16:00 +21°C° 0 mm 3 m/s 753 mmHg 68%
    17:00 +19°C° 0.2 mm 3 m/s 752 mmHg 76%
    18:00 +18°C° 0.2 mm 3 m/s 751 mmHg 83%
    19:00 +16°C° 0.2 mm 2 m/s 750 mmHg 90%
    20:00 +16°C° 0.4 mm 3 m/s 749 mmHg 93%
    21:00 +16°C° 0.4 mm 3 m/s 748 mmHg 95%
    22:00 +14°C° 0.4 mm 3 m/s 748 mmHg 97%
    23:00 +14°C° 0 mm 3 m/s 747 mmHg 95%

    Poimâine, 24 Mai, Vineri

    Timp Temperatura Precipitaţii Vânt Presiune Umiditate
    00:00 +14°C° 0 mm 4 m/s 746 mmHg 94%
    01:00 +14°C° 0 mm 4 m/s 746 mmHg 92%
    02:00 +14°C° 0 mm 4 m/s 746 mmHg 92%
    03:00 +13°C° 0 mm 4 m/s 746 mmHg 91%
    04:00 +13°C° 0 mm 4 m/s 746 mmHg 91%
    05:00 +14°C° 0 mm 4 m/s 746 mmHg 85%
    06:00 +15°C° 0 mm 5 m/s 746 mmHg 79%
    07:00 +17°C° 0 mm 6 m/s 746 mmHg 73%
    08:00 +19°C° 0 mm 6 m/s 747 mmHg 67%
    09:00 +20°C° 0 mm 7 m/s 747 mmHg 61%
    10:00 +21°C° 0 mm 7 m/s 748 mmHg 56%
    11:00 +20°C° 0 mm 7 m/s 749 mmHg 57%
    12:00 +20°C° 0 mm 6 m/s 750 mmHg 59%
    13:00 +19°C° 0 mm 5 m/s 750 mmHg 61%
    14:00 +19°C° 0 mm 4 m/s 751 mmHg 61%
    15:00 +19°C° 0 mm 4 m/s 752 mmHg 61%
    16:00 +19°C° 0 mm 3 m/s 753 mmHg 62%
    17:00 +18°C° 0 mm 2 m/s 754 mmHg 68%
    18:00 +17°C° 0 mm 2 m/s 754 mmHg 74%
    19:00 +15°C° 0 mm 1 m/s 755 mmHg 80%
    20:00 +14°C° 0 mm 1 m/s 755 mmHg 83%
    21:00 +13°C° 0 mm 1 m/s 756 mmHg 87%
    22:00 +11°C° 0 mm 0 m/s 757 mmHg 90%
    23:00 +11°C° 0 mm 1 m/s 757 mmHg 92%

    25 Mai, Sâmbătă

    Timp Temperatura Precipitaţii Vânt Presiune Umiditate
    00:00 +11°C° 0 mm 1 m/s 757 mmHg 93%
    01:00 +10°C° 0 mm 1 m/s 757 mmHg 95%
    02:00 +10°C° 0 mm 1 m/s 757 mmHg 95%
    03:00 +10°C° 0 mm 1 m/s 758 mmHg 95%
    04:00 +10°C° 0 mm 1 m/s 758 mmHg 95%
    05:00 +12°C° 0 mm 1 m/s 758 mmHg 87%
    06:00 +14°C° 0 mm 1 m/s 758 mmHg 79%
    07:00 +18°C° 0 mm 1 m/s 759 mmHg 71%
    08:00 +19°C° 0 mm 1 m/s 758 mmHg 63%
    09:00 +20°C° 0 mm 2 m/s 758 mmHg 55%
    10:00 +23°C° 0 mm 2 m/s 758 mmHg 47%
    11:00 +24°C° 0 mm 3 m/s 757 mmHg 45%
    12:00 +25°C° 0 mm 3 m/s 757 mmHg 43%
    13:00 +26°C° 0 mm 4 m/s 756 mmHg 41%
    14:00 +25°C° 0 mm 4 m/s 755 mmHg 45%
    15:00 +25°C° 0 mm 4 m/s 755 mmHg 49%
    16:00 +23°C° 0 mm 4 m/s 755 mmHg 53%
    17:00 +21°C° 0 mm 4 m/s 754 mmHg 57%
    18:00 +20°C° 0 mm 4 m/s 754 mmHg 61%
    19:00 +17°C° 0 mm 5 m/s 754 mmHg 65%
    20:00 +15°C° 0.8 mm 5 m/s 753 mmHg 74%
    21:00 +14°C° 0.8 mm 5 m/s 753 mmHg 84%
    22:00 +12°C° 0.8 mm 5 m/s 753 mmHg 94%
    23:00 +13°C° 1.1 mm 5 m/s 752 mmHg 95%

    26 Mai, Duminică

    Timp Temperatura Precipitaţii Vânt Presiune Umiditate
    00:00 +14°C° 1.1 mm 4 m/s 751 mmHg 95%
    01:00 +14°C° 1.1 mm 4 m/s 751 mmHg 96%
    02:00 +14°C° 0 mm 4 m/s 751 mmHg 96%
    03:00 +16°C° 0 mm 3 m/s 750 mmHg 96%
    04:00 +16°C° 0 mm 3 m/s 750 mmHg 97%
    05:00 +18°C° 0 mm 3 m/s 750 mmHg 93%
    06:00 +19°C° 0 mm 3 m/s 750 mmHg 89%
    07:00 +21°C° 0 mm 3 m/s 750 mmHg 85%
    08:00 +23°C° 0 mm 4 m/s 750 mmHg 72%
    09:00 +27°C° 0 mm 4 m/s 750 mmHg 59%
    10:00 +29°C° 0 mm 4 m/s 750 mmHg 46%
    11:00 +30°C° 0 mm 5 m/s 750 mmHg 43%
    12:00 +30°C° 0 mm 5 m/s 749 mmHg 40%
    13:00 +32°C° 0 mm 6 m/s 749 mmHg 37%
    14:00 +32°C° 0 mm 5 m/s 749 mmHg 37%
    15:00 +32°C° 0 mm 5 m/s 749 mmHg 37%
    16:00 +32°C° 0 mm 5 m/s 748 mmHg 37%
    17:00 +28°C° 0 mm 4 m/s 749 mmHg 47%
    18:00 +26°C° 0 mm 3 m/s 749 mmHg 57%
    19:00 +23°C° 0 mm 2 m/s 749 mmHg 67%
    20:00 +20°C° 0 mm 2 m/s 749 mmHg 71%
    21:00 +20°C° 0 mm 1 m/s 749 mmHg 75%
    22:00 +18°C° 0 mm 1 m/s 749 mmHg 78%
    23:00 +16°C° 0 mm 1 m/s 749 mmHg 80%

    27 Mai, Luni

    Timp Temperatura Precipitaţii Vânt Presiune Umiditate
    00:00 +16°C° 0 mm 1 m/s 749 mmHg 82%
    01:00 +15°C° 0 mm 1 m/s 749 mmHg 84%
    02:00 +14°C° 0 mm 1 m/s 748 mmHg 86%
    03:00 +14°C° 0 mm 1 m/s 748 mmHg 87%
    04:00 +13°C° 0 mm 1 m/s 748 mmHg 89%
    05:00 +15°C° 0 mm 1 m/s 748 mmHg 82%
    06:00 +19°C° 0 mm 1 m/s 748 mmHg 74%
    07:00 +21°C° 0 mm 1 m/s 748 mmHg 66%
    08:00 +22°C° 0 mm 1 m/s 747 mmHg 60%
    09:00 +24°C° 0 mm 2 m/s 747 mmHg 54%
    10:00 +26°C° 0 mm 2 m/s 746 mmHg 48%
    11:00 +25°C° 0.4 mm 3 m/s 746 mmHg 55%
    12:00 +23°C° 0.4 mm 4 m/s 746 mmHg 63%
    13:00 +22°C° 0.4 mm 4 m/s 746 mmHg 70%
    14:00 +19°C° 0.7 mm 5 m/s 746 mmHg 76%
    15:00 +15°C° 0.7 mm 5 m/s 747 mmHg 81%
    16:00 +11°C° 0.7 mm 6 m/s 747 mmHg 86%
    17:00 +12°C° 0 mm 5 m/s 748 mmHg 78%
    18:00 +12°C° 0 mm 4 m/s 749 mmHg 70%
    19:00 +12°C° 0 mm 3 m/s 750 mmHg 62%
    20:00 +11°C° 0 mm 3 m/s 750 mmHg 64%
    21:00 +10°C° 0 mm 2 m/s 751 mmHg 65%
    22:00 +9°C° 0 mm 2 m/s 751 mmHg 67%
    23:00 +8°C° 0 mm 2 m/s 751 mmHg 63%
    Arată mai mult